Location: ActonStarParty
(42.4766°N, 71.4538°W)
Time: 07:06:38
(UTC-04:00)

Amateur Radio Satellites - All Passes

Search period start: 30 May 2017 06:36
Search period end: 31 May 2017 06:36
Location: ActonStarParty, 42.4766°N, 71.4538°W

Satellite Date Start Highest point End Downlink Frequencies (MHz)
Time Altitude Azimuth
AO-7 30 May 06:49:51 06:55:29 21° 311° (NW) 07:01:07 .
RS-15 30 May 06:51:26 07:01:07 25° 4° (N) 07:10:37 29.354- 29.394
NO-84 30 May 06:53:08 06:56:59 31° 130° (SE) 07:00:50 435.350 FM
LilacSat-2 30 May 06:54:31 06:58:25 77° 100° (E) 07:02:16 437.200
STRAND 1 30 May 06:56:18 07:01:15 54° 72° (ENE) 07:06:14 437.568
SO-50 30 May 07:16:13 07:20:09 30° 245° (WSW) 07:24:06 436.795
SEEDS 30 May 07:23:31 07:25:39 14° 90° (E) 07:27:46 437.485
XW-2D 30 May 07:24:07 07:27:50 46° 287° (WNW) 07:31:29 145.860 - 145.880
NUDT-PHONESAT 30 May 07:28:21 07:32:03 54° 286° (WNW) 07:35:43 437.300
XW-2B 30 May 07:32:17 07:35:53 38° 288° (WNW) 07:39:26 145.730 - 145.750
XW-2F 30 May 07:42:06 07:45:31 30° 289° (WNW) 07:48:52 145.980 - 146.000
KAITUO 1B 30 May 07:42:45 07:46:14 36° 288° (WNW) 07:49:42 145.475/437.950
XW-2C 30 May 07:46:25 07:49:42 26° 290° (WNW) 07:52:55 145.795 - 145.815
M-CUBED/EXP-1 PRIME 30 May 07:50:54 07:54:48 44° 68° (ENE) 07:58:26 437.505
CUBEBUG 2 30 May 07:59:45 08:03:48 29° 95° (E) 08:07:53 437.445
DOVE 4 30 May 07:59:46 08:02:01 14° 296° (WNW) 08:04:17 437.250
UWE-3 30 May 08:02:10 08:05:27 19° 92° (E) 08:08:45 435.000/436.395/437.385
HO-68 30 May 08:04:23 08:11:30 59° 102° (ESE) 08:18:33 435.675
AAUSAT CUBESAT 2 30 May 08:10:12 08:13:21 21° 93° (E) 08:16:29 437.432
CUTE-I 30 May 08:11:08 08:15:51 33° 294° (WNW) 08:20:34 437.470
CUTE 1.7 + AOD 2 30 May 08:15:59 08:20:16 84° 103° (ESE) 08:24:30 437.475
Oscar 11 30 May 08:20:30 08:21:09 10° 88° (E) 08:21:48 .
XW-2A 30 May 08:28:31 08:31:58 70° 283° (WNW) 08:35:24 145.665 - 145.685
NO-84 30 May 08:30:16 08:34:31 47° 326° (NW) 08:38:39 435.350 FM
STRAND 1 30 May 08:37:14 08:40:45 19° 268° (W) 08:44:17 437.568
TIGRISAT 30 May 08:47:12 08:49:37 15° 62° (ENE) 08:52:04 435.000
AO-73 30 May 08:49:16 08:53:17 30° 95° (E) 08:57:17 145.935
SEEDS 30 May 08:57:33 09:01:39 51° 287° (WNW) 09:05:42 437.485
ZACube-1 30 May 09:05:27 09:09:54 49° 99° (E) 09:14:20 437.345
RS-15 30 May 09:06:32 09:18:06 43° 37° (NE) 09:29:10 29.354- 29.394
UNISAT 6 30 May 09:18:27 09:22:17 33° 69° (ENE) 09:26:14 437.425
M-CUBED/EXP-1 PRIME 30 May 09:26:55 09:29:21 15° 261° (W) 09:31:43 437.505
DELFI C3 30 May 09:27:53 09:30:08 15° 92° (E) 09:32:24 145.870
CUBEBUG 2 30 May 09:36:18 09:40:21 30° 291° (WNW) 09:44:27 437.445
UWE-3 30 May 09:37:40 09:42:05 45° 288° (WNW) 09:46:32 435.000/436.395/437.385
FO-29 30 May 09:41:22 09:46:27 61° 72° (ENE) 09:51:50 435.910
AAUSAT CUBESAT 2 30 May 09:45:10 09:48:52 32° 290° (WNW) 09:52:31 437.432
PRISM 30 May 09:46:10 09:50:18 87° 75° (ENE) 09:54:25 437.425
HO-68 30 May 09:52:47 09:58:47 30° 300° (WNW) 10:04:46 435.675
Oscar 11 30 May 09:53:25 09:57:47 72° 284° (WNW) 10:02:05 .
EO-88 30 May 10:03:45 10:06:54 26° 96° (E) 10:10:01 145.990 - 145.960
NO-84 30 May 10:10:01 10:12:57 17° 346° (NNW) 10:15:47 435.350 FM
TIGRISAT 30 May 10:21:37 10:25:49 55° 260° (W) 10:30:08 435.000
AO-73 30 May 10:25:32 10:29:25 28° 292° (WNW) 10:33:19 145.935
YUBILEINY 30 May 10:26:01 10:32:25 21° 62° (ENE) 10:38:46 435.215
EO-79 30 May 10:33:43 10:36:05 15° 63° (ENE) 10:38:28 145.935-145.965
ZACube-1 30 May 10:42:39 10:45:48 18° 295° (WNW) 10:48:56 437.345
AIST 2D 30 May 10:50:37 10:53:53 37° 73° (ENE) 10:57:12 435.315
UNISAT 6 30 May 10:55:40 10:59:04 23° 266° (W) 11:02:32 437.425
DELFI C3 30 May 11:01:25 11:05:07 41° 288° (WNW) 11:08:47 145.870
AO-85 30 May 11:13:35 11:16:19 17° 43° (NE) 11:19:06 145.980
NANOSAT C BR1 30 May 11:14:30 11:18:18 35° 70° (ENE) 11:22:09 145.865
RS-15 30 May 11:19:28 11:31:32 71° 244° (WSW) 11:42:59 29.354- 29.394
DUCHIFAT 1 30 May 11:22:47 11:26:40 39° 71° (ENE) 11:30:35 145.980
POLYITAN 1 30 May 11:22:48 11:26:50 49° 72° (ENE) 11:30:55 437.675
BUGSAT 1 30 May 11:26:13 11:28:10 13° 63° (ENE) 11:30:08 437.445
FO-29 30 May 11:29:08 11:32:11 15° 271° (W) 11:35:17 435.910
BEESAT 3 30 May 11:29:24 11:29:59 10° 35° (NE) 11:30:34 437.485
QB50P2 30 May 11:31:36 11:35:45 68° 75° (ENE) 11:39:57 145.880/145.840
EO-88 30 May 11:37:38 11:40:25 21° 292° (WNW) 11:43:13 145.990 - 145.960
O/OREOS (USA 219) 30 May 11:48:57 11:51:44 16° 52° (NE) 11:54:31 437.305
NO-84 30 May 11:49:28 11:51:53 15° 7° (N) 11:54:13 435.350 FM
LO-87 30 May 12:06:08 12:09:41 68° 284° (WNW) 12:13:14 145.935 - 145.965
EO-79 30 May 12:07:20 12:11:25 52° 260° (W) 12:15:32 145.935-145.965
YUBILEINY 30 May 12:21:32 12:30:25 87° 264° (W) 12:39:16 435.215
SPROUT 30 May 12:22:49 12:26:11 22° 94° (E) 12:29:32 437.525
ESTCUBE 1 30 May 12:22:52 12:27:24 86° 106° (ESE) 12:31:52 437.505/2401.250
AIST 2D 30 May 12:25:33 12:27:16 13° 269° (W) 12:29:00 435.315
Oscar 19 30 May 12:36:44 12:41:20 33° 67° (ENE) 12:45:58 437.125/150
Gurwin Techsat 1B 30 May 12:48:38 12:53:01 27° 65° (ENE) 12:57:26 435.225
50 SAT 30 May 12:48:53 12:51:14 17° 94° (E) 12:53:34 437.505
NANOSAT C BR1 30 May 12:51:05 12:54:07 19° 267° (W) 12:57:11 145.865
AO-85 30 May 12:53:00 12:57:00 58° 240° (WSW) 13:01:13 145.980
BEESAT 2 30 May 12:54:21 12:57:36 22° 45° (NE) 13:00:49 435.950
BUGSAT 1 30 May 12:59:10 13:03:04 53° 260° (W) 13:07:02 437.445
DUCHIFAT 1 30 May 12:59:40 13:02:29 18° 267° (W) 13:05:20 145.980
VELOX 1 30 May 13:00:08 13:04:27 54° 100° (E) 13:08:44 145.980
POLYITAN 1 30 May 13:00:35 13:02:54 14° 269° (W) 13:05:14 437.675
BEESAT 3 30 May 13:04:22 13:08:23 65° 55° (NE) 13:12:19 437.485
UKube-1 30 May 13:06:39 13:09:06 15° 92° (E) 13:11:32 .
QB50P2 30 May 13:11:14 13:12:00 10° 271° (W) 13:12:46 145.880/145.840
DX 1 30 May 13:22:01 13:25:54 32° 97° (E) 13:29:46 434.975-435.025
NO-84 30 May 13:26:55 13:30:32 31° 28° (NNE) 13:33:52 435.350 FM
O/OREOS (USA 219) 30 May 13:27:08 13:31:35 61° 251° (WSW) 13:35:59 437.305
RS-15 30 May 13:35:18 13:41:31 16° 265° (W) 13:47:38 29.354- 29.394
ITAMSAT 1 30 May 13:49:50 13:52:37 15° 59° (ENE) 13:55:25 435.822/435.867
SPROUT 30 May 13:58:17 14:02:07 33° 290° (WNW) 14:05:58 437.525
ESTCUBE 1 30 May 14:02:26 14:03:29 11° 301° (WNW) 14:04:31 437.505/2401.250
AO-7 30 May 14:03:46 14:10:59 35° 58° (ENE) 14:18:15 .
Oscar 19 30 May 14:16:01 14:20:37 31° 264° (W) 14:25:14 437.125/150
YUBILEINY 30 May 14:20:35 14:25:51 18° 284° (WNW) 14:31:07 435.215
50 SAT 30 May 14:21:14 14:24:05 25° 290° (WNW) 14:26:54 437.505
Gurwin Techsat 1B 30 May 14:27:47 14:32:45 41° 262° (W) 14:37:47 435.225
BEESAT 2 30 May 14:31:41 14:35:30 40° 243° (WSW) 14:39:18 435.950
VELOX 1 30 May 14:37:52 14:40:27 16° 297° (WNW) 14:43:03 145.980
UKube-1 30 May 14:41:13 14:45:24 50° 288° (WNW) 14:49:33 .
BEESAT 3 30 May 14:43:57 14:45:24 12° 252° (WSW) 14:46:51 437.485
DX 1 30 May 14:58:26 15:01:56 24° 294° (WNW) 15:05:24 434.975-435.025
MOZHAYETS 4 30 May 14:59:16 15:01:23 13° 89° (E) 15:03:28
NO-84 30 May 15:04:35 15:08:10 39° 229° (SW) 15:11:26 435.350 FM
ITUPSAT 1 30 May 15:23:16 15:27:46 38° 98° (E) 15:32:15 437.325
ITAMSAT 1 30 May 15:26:15 15:31:25 79° 256° (WSW) 15:36:38 435.822/435.867
BEESAT 30 May 15:53:37 15:58:26 80° 103° (ESE) 16:03:14 436.000
AO-7 30 May 15:55:15 16:03:21 58° 257° (WSW) 16:11:33 .
MOZHAYETS 4 30 May 16:34:21 16:38:58 66° 286° (WNW) 16:43:33
XW-2F 30 May 16:51:48 16:52:52 11° 63° (ENE) 16:53:57 145.980 - 146.000
XW-2C 30 May 16:55:35 16:57:21 13° 64° (ENE) 16:59:09 145.795 - 145.815
KKS-1 30 May 16:55:37 16:59:31 29° 97° (E) 17:03:23 437.445
ITUPSAT 1 30 May 17:01:30 17:05:23 25° 295° (WNW) 17:09:15 437.325
STARS 30 May 17:14:22 17:17:37 20° 94° (E) 17:20:53 437.465
DOVE 4 30 May 17:26:29 17:30:54 58° 74° (ENE) 17:35:07 437.250
CUBESAT XI-V 30 May 17:32:11 17:36:51 89° 290° (WNW) 17:41:28 437.345
BEESAT 30 May 17:33:24 17:35:33 13° 301° (WNW) 17:37:42 436.000
LilacSat-2 30 May 17:36:44 17:40:20 39° 72° (ENE) 17:43:58 437.200
CUTE-I 30 May 17:53:21 17:58:33 59° 72° (ENE) 18:03:46 437.470
PCSat 30 May 17:54:22 17:59:20 38° 112° (ESE) 18:04:21 145.827
XW-2D 30 May 18:05:16 18:09:05 88° 71° (ENE) 18:12:58 145.860 - 145.880
NUDT-PHONESAT 30 May 18:07:38 18:11:20 69° 76° (ENE) 18:15:05 437.300
XW-2B 30 May 18:13:22 18:17:10 77° 257° (WSW) 18:21:02 145.730 - 145.750
SEEDS 30 May 18:16:51 18:18:14 11° 62° (ENE) 18:19:37 437.485
KAITUO 1B 30 May 18:22:32 18:26:18 75° 260° (W) 18:30:07 145.475/437.950
XW-2F 30 May 18:22:43 18:26:28 60° 259° (W) 18:30:17 145.980 - 146.000
XW-2C 30 May 18:27:24 18:31:07 50° 261° (W) 18:34:52 145.795 - 145.815
ISS 30 May 18:29:31 18:32:14 24° 135° (SE) 18:34:59 437.550
KKS-1 30 May 18:32:14 18:35:58 27° 293° (WNW) 18:39:42 437.445
HO-68 30 May 18:33:27 18:40:13 47° 65° (ENE) 18:47:01 435.675
Tancredo 1 30 May 18:48:50 18:51:51 60° 143° (SE) 18:54:53 437.200
STARS 30 May 18:50:00 18:54:05 38° 290° (WNW) 18:58:10 437.465
CUBEBUG 2 30 May 18:58:54 19:02:15 24° 67° (ENE) 19:05:41 437.445
XW-2A 30 May 19:00:14 19:03:22 37° 72° (ENE) 19:06:32 145.665 - 145.685
UWE-3 30 May 19:00:32 19:03:04 16° 63° (ENE) 19:05:38 435.000/436.395/437.385
AAUSAT CUBESAT 2 30 May 19:01:24 19:04:00 16° 65° (ENE) 19:06:37 437.432
DOVE 4 30 May 19:06:55 19:08:55 13° 269° (W) 19:10:53 437.250
STRAND 1 30 May 19:07:09 19:10:32 17° 91° (E) 19:13:55 437.568
CUTE 1.7 + AOD 2 30 May 19:08:40 19:12:54 62° 74° (ENE) 19:17:09 437.475
LilacSat-2 30 May 19:12:31 19:14:47 15° 268° (W) 19:17:04 437.200
CUBESAT XI-V 30 May 19:12:34 19:13:27 10° 301° (WNW) 19:14:21 437.345
CUTE-I 30 May 19:35:25 19:38:59 18° 269° (W) 19:42:34 437.470
PCSat 30 May 19:37:53 19:42:46 34° 310° (NW) 19:47:43 145.827
AO-73 30 May 19:45:33 19:48:59 24° 67° (ENE) 19:52:30 145.935
SEEDS 30 May 19:49:04 19:53:18 73° 258° (WSW) 19:57:35 437.485
ZACube-1 30 May 20:01:43 20:05:41 38° 71° (ENE) 20:09:44 437.345
ISS 30 May 20:05:24 20:08:35 45° 332° (NNW) 20:11:47 437.550
DELFI C3 30 May 20:15:46 20:16:24 10° 62° (ENE) 20:17:02 145.870
HO-68 30 May 20:21:35 20:28:02 35° 264° (W) 20:34:33 435.675
Tancredo 1 30 May 20:25:13 20:27:47 24° 341° (NNW) 20:30:22 437.200
UWE-3 30 May 20:34:59 20:39:04 50° 261° (W) 20:43:19 435.000/436.395/437.385
CUBEBUG 2 30 May 20:35:02 20:38:44 30° 264° (W) 20:42:32 437.445
XW-2A 30 May 20:35:03 20:36:18 12° 269° (W) 20:37:33 145.665 - 145.685
AAUSAT CUBESAT 2 30 May 20:35:04 20:39:05 46° 261° (W) 20:43:08 437.432
EO-88 30 May 20:43:15 20:45:09 14° 65° (ENE) 20:47:03 145.990 - 145.960
STRAND 1 30 May 20:45:01 20:50:04 58° 289° (WNW) 20:55:07 437.568
CUTE 1.7 + AOD 2 30 May 20:47:31 20:49:08 12° 271° (W) 20:50:45 437.475
Oscar 11 30 May 20:48:14 20:52:35 89° 278° (W) 20:56:58 .
M-CUBED/EXP-1 PRIME 30 May 21:03:20 21:05:58 22° 101° (ESE) 21:08:34 437.505
AO-73 30 May 21:21:16 21:25:04 31° 264° (W) 21:28:58 145.935
PRISM 30 May 21:29:21 21:30:16 11° 90° (E) 21:31:11 437.425
SO-50 30 May 21:30:04 21:34:39 73° 121° (ESE) 21:39:11 436.795
ZACube-1 30 May 21:39:04 21:42:07 19° 268° (W) 21:45:13 437.345
ISS 30 May 21:43:20 21:45:41 18° 352° (N) 21:48:02 437.550
DELFI C3 30 May 21:46:38 21:50:36 71° 259° (W) 21:54:35 145.870
Tancredo 1 30 May 22:02:26 22:04:18 15° 1° (N) 22:06:09 437.200
TIGRISAT 30 May 22:12:16 22:16:20 29° 96° (E) 22:20:25 435.000
EO-88 30 May 22:14:59 22:18:28 41° 261° (W) 22:21:59 145.990 - 145.960
FO-29 30 May 22:32:26 22:39:02 58° 101° (E) 22:46:22 435.910
M-CUBED/EXP-1 PRIME 30 May 22:37:57 22:40:20 19° 297° (WNW) 22:42:44 437.505
LO-87 30 May 22:42:30 22:45:55 47° 74° (ENE) 22:49:20 145.935 - 145.965
UNISAT 6 30 May 22:45:01 22:49:40 70° 102° (ESE) 22:54:21 437.425
PRISM 30 May 23:01:55 23:05:57 62° 285° (WNW) 23:09:56 437.425
SO-50 30 May 23:12:28 23:15:35 18° 320° (NW) 23:18:43 436.795
SPROUT 30 May 23:17:07 23:20:06 19° 65° (ENE) 23:23:05 437.525
QB50P2 30 May 23:18:26 23:19:17 10° 89° (E) 23:20:07 145.880/145.840
ISS 30 May 23:20:33 23:23:04 20° 12° (NNE) 23:25:34 437.550
ESTCUBE 1 30 May 23:22:30 23:27:02 83° 76° (ENE) 23:31:37 437.505/2401.250
YUBILEINY 30 May 23:29:22 23:35:37 23° 79° (E) 23:41:54 435.215
RS-15 30 May 23:35:43 23:42:57 18° 96° (E) 23:50:14 29.354- 29.394
Tancredo 1 30 May 23:38:10 23:40:48 25° 20° (NNE) 23:43:26 437.200
AIST 2D 30 May 23:47:54 23:51:19 42° 99° (E) 23:54:41 435.315
TIGRISAT 30 May 23:48:55 23:52:56 30° 292° (WNW) 23:56:59 435.000
EO-79 30 May 23:51:34 23:55:01 23° 95° (E) 23:58:26 145.935-145.965
VELOX 1 30 May 23:57:38 00:01:54 51° 72° (ENE) 00:06:11 145.980
UKube-1 31 May 00:02:03 00:04:28 15° 62° (ENE) 00:06:53 .
DX 1 31 May 00:18:02 00:21:49 30° 68° (ENE) 00:25:38 434.975-435.025
FO-29 31 May 00:18:14 00:23:45 29° 296° (WNW) 00:29:48 435.910
LO-87 31 May 00:19:11 00:19:37 10° 270° (W) 00:20:04 145.935 - 145.965
UNISAT 6 31 May 00:23:26 00:25:48 14° 298° (WNW) 00:28:12 437.425
NANOSAT C BR1 31 May 00:33:06 00:37:19 61° 101° (E) 00:41:32 145.865
BUGSAT 1 31 May 00:40:34 00:43:39 20° 94° (E) 00:46:46 437.445
DUCHIFAT 1 31 May 00:41:07 00:45:21 67° 101° (ESE) 00:49:34 145.980
POLYITAN 1 31 May 00:42:14 00:46:32 86° 99° (E) 00:50:50 437.675
QB50P2 31 May 00:51:15 00:55:31 70° 285° (WNW) 00:59:45 145.880/145.840
SPROUT 31 May 00:51:44 00:55:43 39° 262° (W) 00:59:43 437.525
50 SAT 31 May 00:53:04 00:56:30 67° 259° (WSW) 00:59:56 437.505
ISS 31 May 00:56:46 01:00:02 64° 31° (NNE) 01:03:18 437.550
Tancredo 1 31 May 01:13:41 01:16:41 52° 219° (SW) 01:19:40 437.200
AIST 2D 31 May 01:22:30 01:24:08 13° 295° (WNW) 01:25:45 435.315
YUBILEINY 31 May 01:22:39 01:31:23 78° 280° (W) 01:40:14 435.215
BEESAT 31 May 01:26:11 01:28:03 12° 59° (ENE) 01:29:55 436.000
EO-79 31 May 01:27:01 01:30:48 31° 291° (WNW) 01:34:33 145.935-145.965
UKube-1 31 May 01:35:49 01:40:02 55° 259° (W) 01:44:17 .
VELOX 1 31 May 01:36:04 01:38:39 15° 269° (W) 01:41:13 145.980
RS-15 31 May 01:41:10 01:53:11 75° 118° (ESE) 02:05:31 29.354- 29.394
DX 1 31 May 01:54:26 01:58:00 25° 265° (W) 02:01:35 434.975-435.025
MOZHAYETS 4 31 May 02:01:53 02:04:22 15° 62° (ENE) 02:06:52
O/OREOS (USA 219) 31 May 02:02:55 02:05:20 14° 99° (E) 02:07:45 437.305
NANOSAT C BR1 31 May 02:10:28 02:12:31 13° 297° (WNW) 02:14:34 145.865
BUGSAT 1 31 May 02:15:18 02:19:05 35° 290° (WNW) 02:22:55 437.445
DUCHIFAT 1 31 May 02:18:45 02:20:27 12° 298° (WNW) 02:22:10 145.980
Oscar 19 31 May 02:26:05 02:31:17 86° 105° (ESE) 02:36:25 437.125/150
ITUPSAT 1 31 May 02:30:23 02:34:57 48° 71° (ENE) 02:39:34 437.325
ISS 31 May 02:34:06 02:36:12 16° 228° (SW) 02:38:18 437.550
PCSat 31 May 02:41:15 02:46:19 37° 51° (NE) 02:51:19 145.827
Gurwin Techsat 1B 31 May 02:42:48 02:48:09 75° 103° (ESE) 02:53:27 435.225
BEESAT 31 May 03:00:21 03:05:07 84° 258° (WSW) 03:09:56 436.000
CUBESAT XI-V 31 May 03:02:06 03:03:37 11° 60° (ENE) 03:05:08 437.345
AO-85 31 May 03:08:12 03:12:00 34° 117° (ESE) 03:15:39 145.980
YUBILEINY 31 May 03:24:37 03:29:49 17° 302° (WNW) 03:35:04 435.215
MOZHAYETS 4 31 May 03:36:24 03:40:58 65° 259° (W) 03:45:36
ITAMSAT 1 31 May 03:38:37 03:43:22 35° 97° (E) 03:48:06 435.822/435.867
O/OREOS (USA 219) 31 May 03:39:41 03:44:13 59° 296° (WNW) 03:48:45 437.305
KKS-1 31 May 03:54:12 03:58:02 30° 68° (ENE) 04:01:53 437.445
RS-15 31 May 03:55:25 04:06:49 42° 323° (NW) 04:18:23 29.354- 29.394
AO-7 31 May 03:55:52 04:03:54 48° 101° (E) 04:11:52 .
Oscar 19 31 May 04:07:29 04:09:51 13° 302° (WNW) 04:12:13 437.125/150
ITUPSAT 1 31 May 04:09:42 04:13:02 19° 268° (W) 04:16:23 437.325
STARS 31 May 04:11:44 04:14:55 20° 65° (ENE) 04:18:07 437.465
SO-50 31 May 04:21:45 04:24:01 13° 35° (NE) 04:26:16 436.795
BEESAT 2 31 May 04:23:28 04:26:49 27° 114° (ESE) 04:30:15 435.950
Gurwin Techsat 1B 31 May 04:24:20 04:27:27 16° 301° (WNW) 04:30:34 435.225
PCSat 31 May 04:24:47 04:29:38 34° 250° (WSW) 04:34:28 145.827
BEESAT 3 31 May 04:31:27 04:35:25 87° 303° (WNW) 04:39:27 437.485
CUBESAT XI-V 31 May 04:35:33 04:40:16 87° 255° (WSW) 04:45:01 437.345
AO-85 31 May 04:49:03 04:52:25 24° 313° (NW) 04:55:43 145.980
ITAMSAT 1 31 May 05:18:12 05:22:44 31° 294° (WNW) 05:27:16 435.822/435.867
DOVE 4 31 May 05:25:36 05:27:44 13° 91° (E) 05:29:54 437.250
KKS-1 31 May 05:30:51 05:34:34 26° 264° (W) 05:38:18 437.445
STARS 31 May 05:46:55 05:51:00 39° 261° (W) 05:55:06 437.465
XW-2B 31 May 05:47:42 05:48:35 11° 90° (E) 05:49:28 145.730 - 145.750
AO-7 31 May 05:48:51 05:56:32 42° 300° (WNW) 06:04:12 .
XW-2F 31 May 05:55:41 05:57:33 13° 91° (E) 05:59:24 145.980 - 146.000
KAITUO 1B 31 May 05:55:55 05:56:21 10° 89° (E) 05:56:47 145.475/437.950
XW-2C 31 May 06:00:16 06:02:40 16° 92° (E) 06:05:04 145.795 - 145.815
SO-50 31 May 06:00:43 06:05:14 76° 54° (NE) 06:09:46 436.795
BEESAT 2 31 May 06:00:58 06:04:30 30° 312° (NW) 06:08:05 435.950
CUTE-I 31 May 06:10:21 06:14:28 22° 93° (E) 06:18:33 437.470
BEESAT 3 31 May 06:11:50 06:13:38 13° 322° (NW) 06:15:25 437.485
NO-84 31 May 06:21:15 06:24:52 25° 127° (SE) 06:28:27 435.350 FM
STRAND 1 31 May 06:23:22 06:27:37 27° 65° (ENE) 06:31:53 437.568
